User: anonymous   Login
Location: Black Swamp Observatory
(41.3920°N, 84.1250°W)
Time: 21:58:51
(UTC-04:00)
Language:

Courier 1B - Orbit

View from above orbital plane
View from above orbital plane
View from above satellite
View from above satellite

Ground track
Ground track

The orbit data is extracted from the following two-line orbital elements,

1    58U 60013A   22229.37747622  .00000098  00000-0  19764-4 0  9996
2    58  28.3284  42.0352 0164887 137.4614 223.8834 13.46336508 45815
Epoch (UTC): 17 August 2022 09:03:33
Eccentricity: 0.0164887
inclination: 28.3284°
perigee height: 962 km
apogee height: 1209 km
right ascension of ascending node: 42.0352°
argument of perigee: 137.4614°
revolutions per day: 13.46336508
mean anomaly at epoch: 223.8834°
orbit number at epoch: 4581

The dashed part of the orbit path shows where the satellite is in the earth's shadow,  

DLR